LiveATC.Net - Listen to live air traffic control over the Internet!


ICAO: KHOU  IATA: HOU   Airport: William P Hobby Airport
City: Houston   State/Province: Texas
Country: United States   Continent: North America
KHOU METAR Weather: KHOU 291153Z 00000KT 10SM MIFG CLR 09/07 A3022 RMK AO2 SLP238 70001 T00890072 10106 20078 53004
KHOU Flight Activity (FlightAware)
KHOU Airport Info   (iFlightPlanner)
KHOU VFR Sectional Chart   (iFlightPlanner) 
KHOU IFR Low Altitude Chart   (iFlightPlanner) 
KHOU IFR High Altitude Chart   (iFlightPlanner) 

KHOU Gnd/Twr/App
Feed Status: UP   Listeners: 0
Listen in your browser - HTML5 player (in browser, HTML5)
Click here to listen with your own player (launches your MP3 player)
Archive Access: KHOU Gnd/Twr/App
FacilityFrequency
Hobby Approach (Final)133.050
Hobby Ground121.900
Hobby Tower118.700

NOTICE

Unauthorized use prohibited. See LiveATC.net Terms of Service


Airport/ARTCC Code
Frequency Search
(e.g., 124.400, 128.75)
Site-wide search
 


Browse Feeds
Top 50 Feeds
HF Oceanic Feeds
Coverage Map
Bad Weather Areas

LiveATC FAQ
Offer LiveATC feed
Contact LiveATC.net
Press Inquiries

LiveATC on iPhone
LiveATC on Android

Windows Phone
Windows 8/10

LiveATC Mobile
(Mobile browser)

ATC Audio Archives
Interesting Recordings

LiveATC Forums


Home Page
About LiveATC.net
Make a Donation
Terms of Use
Privacy Policy

Canadian Air Freqs

AIRMETs/SIGMETs

FAA Airport Status
NAS Status
Arrival Demand


Server Software By:
Icecast.org
Liquidsoap